Marshalltown, IA

1:05 AM CST on February 14, 2016 (GMT -0600)
Marshalltown Municipal

Weather History for KMIW - August, 2012

Change the Weather History Date:

Tuesday, August 28, 2012

  Actual Average Record
Temperature  
Mean Temperature 75 °F 69 °F  
Max Temperature 90 °F 80 °F 94 °F (2013)
Min Temperature 60 °F 58 °F 52 °F (2011)
Degree Days  
Heating Degree Days 0 1  
Month to date heating degree days 21 8  
Since 1 June heating degree days 33 42  
Since 1 July heating degree days 22 14  
Cooling Degree Days 10 5  
Month to date cooling degree days 153 177  
Year to date cooling degree days 975 643  
Since 1 June cooling degree days 839 593  
Growing Degree Days 26 (Base 50)    
Moisture  
Dew Point 64 °F    
Average Humidity 72    
Maximum Humidity 100    
Minimum Humidity 44    
Precipitation  
Precipitation 0.00 in 0.14 in 2.10 in (2015)
Month to date precipitation 1.32 3.82  
Year to date precipitation 10.03  
Sea Level Pressure  
Sea Level Pressure 30.06 in    
Wind  
Wind Speed 4 mph (SSE)    
Max Wind Speed 10 mph    
Max Gust Speed 15 mph    
Visibility 10 miles    
Events      
T = Trace of Precipitation, MM = Missing Value Source: NWS Daily Summary

Daily Weather History Graph

Daily Weather History Graph

Search for Another Location

Airport or City:

Trip Planner

Search our weather history database for the weather conditions in past years. The results will help you decide how hot, cold, wet, or windy it might be!

Date:

Astronomy

Aug. 28, 2012 Rise Set
Actual Time 6:33 AM CDT 7:51 PM CDT
Civil Twilight 6:04 AM CDT 8:20 PM CDT
Nautical Twilight 5:29 AM CDT 8:54 PM CDT
Astronomical Twilight 4:52 AM CDT 9:31 PM CDT
Moon 5:55 PM CDT (8/28) 3:21 AM CDT (8/28)
Length of Visible Light 14h 15m
Length of Day
13h 17m
Waxing Gibbous, 90% of the Moon is Illuminated
Aug 28
Waxing Gibbous
Aug 31
Full
Sep 8
Last Quarter
Sep 15
New
Sep 22
First Quarter

Hourly Weather History & Observations

Time (CDT) Temp. Heat Index Dew Point Humidity Pressure Visibility Wind Dir Wind Speed Gust Speed Precip Events Conditions
12:53 AM 66.0 °F - 63.0 °F 90% 30.10 in 10.0 mi Calm Calm - N/A   Clear
1:53 AM 66.0 °F - 62.1 °F 87% 30.10 in 10.0 mi Calm Calm - N/A   Clear
2:53 AM 63.0 °F - 60.1 °F 90% 30.11 in 10.0 mi NNE 3.5 mph - N/A   Clear
3:53 AM 64.9 °F - 60.1 °F 84% 30.10 in 10.0 mi Calm Calm - N/A   Clear
4:53 AM 61.0 °F - 59.0 °F 93% 30.09 in 10.0 mi Calm Calm - N/A   Clear
5:53 AM 61.0 °F - 59.0 °F 93% 30.09 in 10.0 mi Calm Calm - N/A   Clear
6:53 AM 61.0 °F - 60.1 °F 97% 30.10 in 9.0 mi Calm Calm - N/A   Clear
7:53 AM 64.9 °F - 63.0 °F 93% 30.13 in 9.0 mi Calm Calm - N/A   Clear
8:53 AM 71.1 °F - 64.0 °F 78% 30.12 in 10.0 mi Calm Calm - N/A   Clear
9:53 AM 75.9 °F - 66.9 °F 74% 30.12 in 10.0 mi South 5.8 mph - N/A   Clear
10:53 AM 82.0 °F 84.5 °F 66.9 °F 60% 30.13 in 10.0 mi WSW 5.8 mph - N/A   Clear
11:53 AM 84.9 °F 87.6 °F 66.9 °F 55% 30.12 in 10.0 mi NNW 4.6 mph - N/A   Clear
12:53 PM 86.0 °F 88.2 °F 66.0 °F 51% 30.10 in 10.0 mi Calm Calm - N/A   Clear
1:53 PM 87.1 °F 89.2 °F 66.0 °F 49% 30.05 in 10.0 mi SSE 4.6 mph - N/A   Clear
2:53 PM 89.1 °F 91.0 °F 64.9 °F 45% 30.03 in 10.0 mi SSW 9.2 mph - N/A   Clear
3:53 PM 90.0 °F 91.3 °F 64.0 °F 42% 30.01 in 10.0 mi SSW 9.2 mph - N/A   Clear
4:53 PM 89.1 °F 91.0 °F 64.9 °F 45% 30.00 in 10.0 mi South 10.4 mph - N/A   Clear
5:53 PM 88.0 °F 90.7 °F 66.9 °F 49% 29.98 in 10.0 mi South 6.9 mph - N/A   Clear
6:53 PM 86.0 °F 88.8 °F 66.9 °F 53% 29.98 in 10.0 mi SE 6.9 mph - N/A   Clear
7:53 PM 80.1 °F 82.3 °F 66.9 °F 64% 29.98 in 10.0 mi SE 5.8 mph - N/A   Clear
8:53 PM 77.0 °F - 66.9 °F 71% 29.99 in 10.0 mi SSE 4.6 mph - N/A   Clear
9:53 PM 73.9 °F - 66.9 °F 79% 30.00 in 10.0 mi SE 5.8 mph - N/A   Clear
10:53 PM 70.0 °F - 66.0 °F 87% 30.00 in 10.0 mi SE 5.8 mph - N/A   Clear
11:53 PM 71.1 °F - 66.0 °F 84% 30.01 in 10.0 mi SE 5.8 mph - N/A   Clear